St. Francis, KS

10:17 AM CST on December 15, 2017 (GMT -0600)
Cheyenne County Municipal

Weather History for KSYF - September, 2013

Change the Weather History Date:

Thursday, September 19, 2013

  Actual Average Record
Temperature  
Mean Temperature 61 °F -  
Max Temperature 71 °F 82 °F 92 °F (2017)
Min Temperature 52 °F 49 °F 35 °F (2015)
Degree Days  
Heating Degree Days 4    
Growing Degree Days 11 (Base 50)    
Moisture  
Dew Point 50 °F    
Average Humidity 66    
Maximum Humidity 88    
Minimum Humidity 40    
Precipitation  
Precipitation 0.00 in - - ()
Sea Level Pressure  
Sea Level Pressure 30.00 in    
Wind  
Wind Speed 9 mph (North)    
Max Wind Speed 22 mph    
Max Gust Speed 29 mph    
Visibility 10 miles    
Events Rain    
Averages and records for this station are not official NWS values.
T = Trace of Precipitation, MM = Missing Value Source: NWS Daily Summary

Daily Weather History Graph

Daily Weather History Graph

Search for Another Location

Airport or City:

Trip Planner

Search our weather history database for the weather conditions in past years. The results will help you decide how hot, cold, wet, or windy it might be!

Date:

Astronomy

Sep. 19, 2013 Rise Set
Actual Time 7:32 AM CDT 7:48 PM CDT
Civil Twilight 7:05 AM CDT 8:15 PM CDT
Nautical Twilight 6:33 AM CDT 8:47 PM CDT
Astronomical Twilight 6:01 AM CDT 9:19 PM CDT
Moon 7:48 PM CDT (9/19) 7:43 AM CDT (9/19)
Length of Visible Light 13h 10m
Length of Day
12h 16m
Full, 100% of the Moon is Illuminated
Sep 19
Full
Sep 26
Last Quarter
Oct 4
New
Oct 11
First Quarter
Oct 18
Full

Hourly Weather History & Observations

Time (CDT) Temp. Dew Point Humidity Pressure Visibility Wind Dir Wind Speed Gust Speed Precip Events Conditions
12:15 AM 68.0 °F 50.5 °F 54% 29.82 in 10.0 mi North 12.7 mph - N/A   Clear
12:35 AM 68.0 °F 50.4 °F 53% 29.83 in 10.0 mi NNW 10.4 mph - N/A   Clear
12:55 AM 67.1 °F 50.9 °F 56% 29.82 in 10.0 mi NE 9.2 mph - N/A   Clear
1:15 AM 65.7 °F 51.8 °F 61% 29.83 in 10.0 mi North 4.6 mph - N/A Rain Light Rain
1:35 AM 65.1 °F 52.7 °F 64% 29.81 in 10.0 mi NE 5.8 mph - N/A   Scattered Clouds
1:55 AM 63.3 °F 55.6 °F 76% 29.86 in 7.0 mi South 6.9 mph - N/A Rain Heavy Rain
2:15 AM 61.2 °F 55.0 °F 80% 29.84 in 10.0 mi ESE 3.5 mph - N/A Rain Light Rain
2:35 AM 61.9 °F 55.9 °F 81% 29.85 in 10.0 mi NW 3.5 mph - N/A   Mostly Cloudy
2:55 AM 61.9 °F 56.3 °F 82% 29.84 in 10.0 mi Calm Calm - N/A   Overcast
3:15 AM 61.7 °F 56.3 °F 82% 29.85 in 10.0 mi Calm Calm - N/A   Mostly Cloudy
3:35 AM 61.0 °F 56.8 °F 86% 29.85 in 10.0 mi WNW 4.6 mph - N/A   Scattered Clouds
3:55 AM 60.8 °F 57.0 °F 87% 29.84 in 10.0 mi WNW 3.5 mph - N/A   Scattered Clouds
4:15 AM 61.0 °F 57.2 °F 87% 29.84 in 10.0 mi SW 3.5 mph - N/A Rain Light Rain
4:35 AM 60.8 °F 57.0 °F 87% 29.86 in 10.0 mi West 8.1 mph - N/A   Scattered Clouds
4:55 AM 61.0 °F 56.5 °F 85% 29.89 in 10.0 mi WSW 15.0 mph - N/A   Scattered Clouds
5:15 AM 61.0 °F 55.9 °F 83% 29.88 in 10.0 mi WSW 5.8 mph - N/A   Scattered Clouds
5:35 AM 59.7 °F 55.4 °F 86% 29.87 in 10.0 mi Calm Calm - N/A   Clear
5:55 AM 59.9 °F 56.3 °F 88% 29.88 in 10.0 mi Calm Calm - N/A   Clear
6:15 AM 60.1 °F 56.3 °F 87% 29.89 in 10.0 mi WSW 6.9 mph - N/A   Mostly Cloudy
6:35 AM 60.8 °F 56.3 °F 85% 29.89 in 10.0 mi West 5.8 mph - N/A   Scattered Clouds
6:55 AM 61.0 °F 56.5 °F 85% 29.87 in 10.0 mi North 3.5 mph - N/A   Mostly Cloudy
7:15 AM 62.1 °F 56.3 °F 81% 29.89 in 10.0 mi ENE 4.6 mph - N/A   Scattered Clouds
7:35 AM 60.8 °F 56.8 °F 87% 29.91 in 10.0 mi NW 3.5 mph - N/A   Scattered Clouds
7:55 AM 62.6 °F 56.3 °F 80% 29.92 in 10.0 mi Calm Calm - N/A   Clear
8:15 AM 62.1 °F 55.9 °F 80% 29.94 in 10.0 mi NNW 4.6 mph - N/A   Clear
8:35 AM 62.8 °F 55.0 °F 76% 29.96 in 10.0 mi NNW 5.8 mph - N/A   Clear
8:55 AM 62.6 °F 54.7 °F 75% 29.98 in 10.0 mi North 6.9 mph - N/A   Clear
9:15 AM 62.4 °F 54.9 °F 76% 29.98 in 10.0 mi North 12.7 mph 16.1 mph N/A   Clear
9:35 AM 61.9 °F 53.6 °F 74% 29.99 in 10.0 mi North 18.4 mph 24.2 mph N/A   Clear
9:55 AM 62.1 °F 51.6 °F 69% 30.02 in 10.0 mi North 16.1 mph 26.5 mph N/A   Clear
10:15 AM 62.6 °F 49.3 °F 62% 30.03 in 10.0 mi North 19.6 mph 25.3 mph N/A   Scattered Clouds
10:35 AM 62.6 °F 48.6 °F 60% 30.04 in 10.0 mi North 18.4 mph 26.5 mph N/A   Mostly Cloudy
10:55 AM 62.4 °F 46.4 °F 56% 30.05 in 10.0 mi North 20.7 mph 28.8 mph N/A   Overcast
11:15 AM 63.5 °F 45.3 °F 52% 30.06 in 10.0 mi North 21.9 mph 26.5 mph N/A   Overcast
11:35 AM 63.0 °F 44.1 °F 50% 30.06 in 10.0 mi NNE 20.7 mph 27.6 mph N/A   Scattered Clouds
11:55 AM 63.0 °F 43.9 °F 50% 30.07 in 10.0 mi NNE 18.4 mph 25.3 mph N/A   Clear
12:15 PM 65.5 °F 44.6 °F 47% 30.07 in 10.0 mi NNE 18.4 mph 27.6 mph N/A   Clear
12:35 PM 66.4 °F 43.7 °F 44% 30.06 in 10.0 mi NE 21.9 mph 26.5 mph N/A   Clear
12:55 PM 66.9 °F 44.4 °F 44% 30.05 in 10.0 mi NNE 13.8 mph 23.0 mph N/A   Clear
1:15 PM 67.3 °F 44.2 °F 43% 30.04 in 10.0 mi NE 19.6 mph 24.2 mph N/A   Mostly Cloudy
1:35 PM 69.6 °F 44.8 °F 41% 30.04 in 7.0 mi NE 12.7 mph 19.6 mph N/A   Scattered Clouds
1:55 PM 70.3 °F 44.6 °F 40% 30.04 in 10.0 mi NE 13.8 mph - N/A   Scattered Clouds
2:15 PM 70.0 °F 45.7 °F 42% 30.04 in 10.0 mi North 16.1 mph 21.9 mph N/A   Mostly Cloudy
2:35 PM 70.9 °F 47.7 °F 44% 30.04 in 10.0 mi North 12.7 mph - N/A   Scattered Clouds
2:55 PM 70.3 °F 47.7 °F 44% 30.04 in 10.0 mi North 13.8 mph 24.2 mph N/A   Scattered Clouds
3:15 PM 69.3 °F 48.0 °F 47% 30.04 in 10.0 mi North 16.1 mph 25.3 mph N/A   Scattered Clouds
3:35 PM 69.8 °F 46.9 °F 44% 30.05 in 10.0 mi North 15.0 mph - N/A   Clear
3:55 PM 70.2 °F 46.9 °F 43% 30.05 in 10.0 mi North 12.7 mph 18.4 mph N/A   Clear
4:15 PM 70.2 °F 47.1 °F 44% 30.05 in 10.0 mi North 11.5 mph 17.3 mph N/A   Clear
4:35 PM 69.3 °F 46.8 °F 45% 30.05 in 10.0 mi North 11.5 mph - N/A   Clear
4:55 PM 67.6 °F 46.2 °F 46% 30.07 in 10.0 mi North 13.8 mph 17.3 mph N/A   Mostly Cloudy
5:15 PM 67.8 °F 46.0 °F 46% 30.06 in 10.0 mi North 13.8 mph - N/A   Overcast
5:35 PM 68.9 °F 46.4 °F 44% 30.05 in 10.0 mi North 11.5 mph - N/A   Mostly Cloudy
5:55 PM 66.7 °F 46.4 °F 48% 30.06 in 10.0 mi North 13.8 mph - N/A   Mostly Cloudy
6:15 PM 67.1 °F 45.9 °F 46% 30.07 in 10.0 mi NNW 16.1 mph 20.7 mph N/A   Scattered Clouds
6:35 PM 63.9 °F 45.5 °F 51% 30.06 in 10.0 mi North 11.5 mph - N/A   Clear
6:55 PM 63.0 °F 46.8 °F 55% 30.08 in 10.0 mi NNW 12.7 mph - N/A   Scattered Clouds
7:15 PM 62.2 °F 46.8 °F 57% 30.07 in 10.0 mi North 10.4 mph - N/A   Scattered Clouds
7:35 PM 61.9 °F 47.5 °F 59% 30.08 in 10.0 mi North 5.8 mph - N/A   Scattered Clouds
7:55 PM 60.8 °F 47.8 °F 62% 30.09 in 10.0 mi NNE 3.5 mph - N/A   Clear
8:15 PM 59.9 °F 48.6 °F 66% 30.09 in 10.0 mi NE 3.5 mph - N/A   Clear
8:35 PM 57.6 °F 48.9 °F 73% 30.10 in 10.0 mi ENE 3.5 mph - N/A   Clear
8:55 PM 56.5 °F 48.6 °F 75% 30.10 in 10.0 mi Calm Calm - N/A   Clear
9:15 PM 56.1 °F 48.4 °F 75% 30.12 in 10.0 mi ESE 4.6 mph - N/A   Clear
9:35 PM 54.7 °F 48.0 °F 78% 30.13 in 10.0 mi SE 5.8 mph - N/A   Clear
9:55 PM 54.1 °F 47.8 °F 79% 30.13 in 10.0 mi SE 6.9 mph - N/A   Clear
10:15 PM 53.6 °F 48.2 °F 82% 30.14 in 10.0 mi SE 6.9 mph - N/A   Clear
10:35 PM 54.0 °F 48.2 °F 81% 30.15 in 10.0 mi SE 5.8 mph - N/A   Clear
10:55 PM 53.6 °F 47.7 °F 80% 30.16 in 10.0 mi SE 6.9 mph - N/A   Clear
11:15 PM 52.7 °F 47.5 °F 82% 30.17 in 10.0 mi SE 6.9 mph - N/A   Clear
11:35 PM 52.0 °F 47.3 °F 84% 30.17 in 10.0 mi SE 6.9 mph - N/A   Clear
11:55 PM 52.2 °F 47.3 °F 83% 30.17 in 10.0 mi SE 6.9 mph - N/A   Clear